Miscellaneous Local Product
Issued by NWS Hastings, NE

Home | Current Version | Previous Version | Text Only | Print | Product List | Glossary Off
Versions: 1 2 3 4 5 6 7 8 9 10 11 12 13 14 15 16 17 18 19 20 21 22 23 24 25 26 27 28 29 30 31 32 33 34 35 36 37 38 39 40 41 42 43 44 45 46 47 48 49 50

305
AXUS43 KGID 280702
MISGRI

GID CWA HOURLY WEATHER ROUNDUP
NATIONAL WEATHER SERVICE HASTINGS NE
200 AM CDT TUE MAR 28 2017

NOTE: "FAIR" INDICATES FEW OR NO CLOUDS BELOW 12,000 FEET WITH NO
SIGNIFICANT WEATHER AND/OR OBSTRUCTIONS TO VISIBILITY.

...SOUTH CENTRAL NEBRASKA...

CITY           SKY/WX    TMP DP  RH WIND       PRES   REMARKS
GRAND ISLAND   CLEAR     36  36 100 SE3       30.02R FOG
HASTINGS       CLOUDY    41  38  89 S5        30.01S
KEARNEY        CLEAR     37  34  87 SE5       30.00S WCI  34
ORD            CLOUDY    42  39  89 SE6       29.98S FOG
YORK           CLEAR     37  37 100 CALM      30.04R FOG
AURORA         CLEAR     36  36  99 E5        30.02R FOG     WCI  32
LEXINGTON      MOCLDY    41  39  94 SE6       29.98S FOG
HOLDREGE       CLOUDY    38  37  96 SE5       29.99S FOG     WCI  35
HEBRON         CLOUDY    39  38  95 E3        30.02S FOG

...NEBRASKA PANHANDLE...

CITY           SKY/WX    TMP DP  RH WIND       PRES   REMARKS
CHADRON        LGT RAIN  45  40  82 N9        29.90S
ALLIANCE       LGT RAIN  47  41  80 S3        29.90R
SCOTTSBLUFF    LGT RAIN  49  42  77 SE7       29.89R
SIDNEY         RAIN      46  42  86 SE10      29.90R FOG

...WESTERN AND NORTH CENTRAL NEBRASKA...

CITY           SKY/WX    TMP DP  RH WIND       PRES   REMARKS
VALENTINE      CLOUDY    48  40  73 SE7       29.96R
AINSWORTH      MOCLDY    43  41  93 SE5       29.97R
ONEILL         CLOUDY    46  42  85 SE5       30.00R
BROKEN BOW     CLEAR     40  38  93 SE7       29.97R
IMPERIAL       LGT RAIN  46  40  79 SE14      29.92R
NORTH PLATTE   CLOUDY    46  40  79 SE13      29.94S
MCCOOK         MOCLDY    44  41  89 SE12      29.94S

...EASTERN NEBRASKA...

CITY           SKY/WX    TMP DP  RH WIND       PRES   REMARKS
NORFOLK        CLOUDY    36  35  96 E7        30.03R WCI  30
SO SIOUX CITY  CLEAR     37  35  92 N3        30.06R
TEKAMAH        PTCLDY    36  34  92 N5        30.05R WCI  32
COLUMBUS       CLOUDY    36  32  87 CALM      30.05R
ALBION         CLOUDY    41  38  88 SE6       30.02S
OMAHA EPPLEY   MOCLDY    39  34  82 N3        30.05R
OFFUTT AFB     CLEAR     38  37  94 NE3       30.04R
MILLARD        CLOUDY    46  42  86 CALM      30.04S
LINCOLN        CLEAR     34  33  96 N5        30.05S WCI  30
NEBRASKA CITY  CLOUDY    46  39  78 CALM      30.03F
BEATRICE       PTCLDY    37  37  98 CALM      30.03S FOG
FALLS CITY     CLOUDY    47  42  83 N3        30.03S

...NORTHERN KANSAS...

CITY           SKY/WX    TMP DP  RH WIND       PRES   REMARKS
GOODLAND       MOCLDY    47  41  80 SE16      29.90F
HILL CITY      CLOUDY    42  42 100 E7        29.96F FOG
NORTON         SUNNY     43  37  81 SE8       29.95
PHILLIPSBURG   CLEAR     39  39 100 NE7       29.98F FOG     WCI  34
HAYS             N/A     42  42 100 E9        29.96F FOG
RUSSELL        CLOUDY    42  41  96 SE7       29.96F FOG
CONCORDIA      CLOUDY    46  45  96 CALM      30.01R
SALINA         CLOUDY    53  46  77 E7        29.99F
TOPEKA         CLOUDY    50  47  89 NE3       30.02S



USA.gov is the U.S. government's official web portal to all federal, state and local government web resources and services.